Aérodrome :
LOGIN :

S'inscrire | Disclaimer

   EN    FR    IT 

 










Légende :    VFR   VFR Marginal   IFR   IFR Intensif   IFR Très Intensif
Visi : 
Plafond : 
>= 8 km
>= 3000ft
5 à 8 km
1000 à 3000 ft
1500m à 5 km
500 à 1000 ft
800 à 1500m
200 à 500 ft
< 800m
< 200 ft
Symboles :   Orages  Brouillard  Fortes neiges  Fortes précipitations  Vent > 20 kt
SIGMETs :   Divers  Orages  Givrage  Turbulence  Onde Orograph.  Cendres Volcan.






- Altitude de l'aérodrome : 48 ft
- Code IATA : PSR


LIBP - Abruzzo Pescara

DERNIER METAR :
  • 311850Z AUTO 11002KT 9999 NCD 29/21 Q1006

METARs EXPIRÉS :
  • 311820Z AUTO 06003KT 9999 NCD 29/21 Q1006
  • 311750Z AUTO 03004KT 360V060 9999 NCD 30/21 Q1006
  • 311720Z AUTO 04006KT 9999 NCD 31/22 Q1006
  • 311650Z AUTO 05007KT 9999 NCD 31/22 Q1007
  • 311620Z AUTO 05008KT 9999 NCD 32/22 Q1007

TAF TAF LIBP
Valide du 31 à 18h jusqu'au 01 à 18h UTC


311700Z 3118/0118 07010KT CAVOK
BECMG 3118/3120 VRB05KT
BECMG 3121/3123 24010KT
BECMG 0106/0108 24018G32KT
BECMG 0114/0116 25010KT



MET'MAP, la Météo Aéronautique d'un coup d'oeil ! - Copyright ORBIFLY Décembre 2007 - Disclaimer

ORBIFLY MET'MAP TEAM :

Programmation & Développement : Alexandra Zaïnal
Sur une idée originale de : Baudouin d'Aumeries
Assistance à la programmation : Marc-Olivier Méhu
Soutien technique & logistique : Manuel Goepfert

Contact : metmap@orbifly.com




SOURCES & CREDITS :

   NOAA